Location: *
(45.9500°N, 9.0833°E)
Time: 18:29:06
(UTC+00:00)

Cosmos 2263 Rocket - Pass Details

Date: 03 March 2021
Orbit: 825 x 847 km, 71.0° (Epoch: 15 April)

Event Time Altitude Azimuth Distance (km) Brightness Sun altitude
Rises 17:47:45 0° 329° (NNW) 3,372 5.7 -6.8°
Reaches altitude 10° 17:50:14 10° 325° (NW) 2,435 5.1 -7.2°
Maximum altitude 17:55:38 53° 250° (WSW) 1,010 3.1 -8.2°
Drops below altitude 10° 18:01:00 10° 175° (S) 2,422 4.5 -9.1°
Sets 18:03:28 0° 171° (S) 3,353 5.2 -9.5°
